Skip Page Navigation
NASA JPL Caltech
NASA Logo - Jet Propulsion Laboratory + View the NASA Portal
+ Center for Near-Earth Object Studies
JPL Home Earth Solar System Stars & Galaxies Technology
JPL Solar System Dynamics
BODIES ORBITS EPHEMERIDES TOOLS PHYSICAL DATA DISCOVERY FAQ SITE MAP
JPL Small-Body Database Browser
Search: [ help ]  
(2012 UU27)
Classification: Outer Main-belt Asteroid          SPK-ID: 3612965
Ephemeris | Orbit Diagram | Orbital Elements | Mission Design | Physical Parameters | Close-Approach Data ]

[ show orbit diagram ]
Orbital Elements at Epoch 2459200.5 (2020-Dec-17.0) TDB
Reference: JPL 5 (heliocentric ecliptic J2000)
 Element Value Uncertainty (1-sigma)   Units 
e .6359791979906327 0.00064548  
a 4.377324151927114 0.0086491 au
q 1.593437048439482 0.00032314 au
i 54.59923244434793 0.0168 deg
node 22.51705157820691 0.0047605 deg
peri 41.33912357573197 0.027318 deg
M 316.74071934291 0.92877 deg
tp 2459602.465039265798
(2022-Jan-22.96503927)
9.8215 TDB
period 3345.118363912747
9.16
9.9144
0.02714
d
yr
n .1076195102342842 0.00031897 deg/d
Q 7.161211255414746 0.01415 au
  Orbit Determination Parameters
   # obs. used (total)      78  
   data-arc span      29 days  
   first obs. used      2012-10-16  
   last obs. used      2012-11-14  
   planetary ephem.      DE441  
   SB-pert. ephem.      SB441-N16  
   condition code      7  
   norm. resid. RMS      .51219  
   source      ORB  
   producer      Otto Matic  
   solution date      2021-Apr-15 07:00:11  

Additional Information
 Earth MOID = .716083 au 
 Jupiter MOID = .423185 au 
 T_jup = 2.009 
[ show covariance matrix ]

Ephemeris | Orbit Diagram | Orbital Elements | Mission Design | Physical Parameters | Close-Approach Data ]

Physical Parameter Table
Parameter Symbol Value Units Sigma Reference Notes
absolute magnitude H 18.3   n/a MPO245985  

[ show close-approach data ]
Ephemeris | Orbit Diagram | Orbital Elements | Mission Design | Physical Parameters | Close-Approach Data ]
ABOUT SSD CREDITS/AWARDS PRIVACY/COPYRIGHT GLOSSARY LINKS
FirstGov 2021-May-13 23:02 UT
(server date/time)  
NASA Home Page
Site Manager:   Ryan S. Park
Webmaster  Alan B. Chamberlin